Time,TemperatureF,DewpointF,PressureIn,WindDirection,WindDirectionDegrees,WindSpeedMPH,WindSpeedGustMPH,Humidity,HourlyPrecipIn,Conditions,Clouds,dailyrainin,SoftwareType,DateUTC
2013-05-10 00:01:00,67.1,61.4,29.94,WSW,242,0.0,2.0,82,0.00,,,0.00,Wunderground v.1.15,2013-05-10 04:01:00,
2013-05-10 00:02:00,67.1,61.4,29.94,WSW,242,0.0,0.0,82,0.00,,,0.00,Wunderground v.1.15,2013-05-10 04:02:00,
2013-05-10 00:04:00,66.9,61.2,29.94,WSW,242,0.0,0.0,82,0.00,,,0.00,Wunderground v.1.15,2013-05-10 04:04:00,
2013-05-10 00:06:00,66.9,61.2,29.94,WSW,242,0.0,0.0,82,0.00,,,0.00,Wunderground v.1.15,2013-05-10 04:06:00,
2013-05-10 00:11:00,66.9,61.2,29.94,WSW,242,0.0,2.0,82,0.00,,,0.00,Wunderground v.1.15,2013-05-10 04:11:00,
2013-05-10 00:16:00,66.8,61.1,29.94,WSW,242,0.0,0.0,82,0.00,,,0.00,Wunderground v.1.15,2013-05-10 04:16:00,
2013-05-10 00:21:00,66.8,61.1,29.94,WSW,242,0.0,0.0,82,0.00,,,0.00,Wunderground v.1.15,2013-05-10 04:21:00,
2013-05-10 00:26:00,66.6,60.9,29.94,WSW,242,0.0,0.0,82,0.00,,,0.00,Wunderground v.1.15,2013-05-10 04:26:00,
2013-05-10 00:31:00,66.6,60.9,29.94,WSW,242,0.0,0.0,82,0.00,,,0.00,Wunderground v.1.15,2013-05-10 04:31:00,
2013-05-10 00:36:00,66.4,61.1,29.94,WSW,242,0.0,0.0,83,0.00,,,0.00,Wunderground v.1.15,2013-05-10 04:36:00,
2013-05-10 00:41:00,66.4,61.1,29.94,WSW,242,0.0,2.0,83,0.00,,,0.00,Wunderground v.1.15,2013-05-10 04:41:00,
2013-05-10 00:47:00,66.3,61.0,29.94,WSW,242,0.0,0.0,83,0.00,,,0.00,Wunderground v.1.15,2013-05-10 04:47:00,
2013-05-10 00:52:00,66.1,60.8,29.94,WSW,242,0.0,0.0,83,0.00,,,0.00,Wunderground v.1.15,2013-05-10 04:52:00,
2013-05-10 00:57:00,66.0,60.7,29.94,WSW,242,0.0,0.0,83,0.00,,,0.00,Wunderground v.1.15,2013-05-10 04:57:00,
2013-05-10 01:02:00,66.0,60.7,29.94,WSW,242,0.0,0.0,83,0.00,,,0.00,Wunderground v.1.15,2013-05-10 05:02:00,
2013-05-10 01:07:00,65.8,60.5,29.94,WSW,242,0.0,0.0,83,0.00,,,0.00,Wunderground v.1.15,2013-05-10 05:07:00,
2013-05-10 01:13:00,65.6,60.3,29.94,WSW,242,0.0,0.0,83,0.00,,,0.00,Wunderground v.1.15,2013-05-10 05:13:00,
2013-05-10 01:19:00,65.6,60.6,29.94,WSW,242,0.0,0.0,84,0.00,,,0.00,Wunderground v.1.15,2013-05-10 05:19:00,
2013-05-10 01:24:00,65.5,60.5,29.94,WSW,242,0.0,0.0,84,0.00,,,0.00,Wunderground v.1.15,2013-05-10 05:24:00,
2013-05-10 01:30:00,65.5,60.5,29.94,WSW,242,0.0,0.0,84,0.00,,,0.00,Wunderground v.1.15,2013-05-10 05:30:00,
2013-05-10 01:35:00,65.3,60.3,29.94,WSW,242,0.0,0.0,84,0.00,,,0.00,Wunderground v.1.15,2013-05-10 05:35:00,
2013-05-10 01:40:00,65.3,60.3,29.94,WSW,242,0.0,0.0,84,0.00,,,0.00,Wunderground v.1.15,2013-05-10 05:40:00,
2013-05-10 01:45:00,65.2,60.2,29.93,WSW,242,0.0,0.0,84,0.00,,,0.00,Wunderground v.1.15,2013-05-10 05:45:00,
2013-05-10 01:51:00,65.2,60.2,29.93,WSW,242,0.0,0.0,84,0.00,,,0.00,Wunderground v.1.15,2013-05-10 05:51:00,
2013-05-10 01:56:00,65.0,60.0,29.93,WSW,242,0.0,0.0,84,0.00,,,0.00,Wunderground v.1.15,2013-05-10 05:56:00,
2013-05-10 02:01:00,64.8,59.9,29.93,WSW,242,0.0,0.0,84,0.00,,,0.00,Wunderground v.1.15,2013-05-10 06:01:00,
2013-05-10 02:06:00,64.8,59.9,29.93,WSW,242,0.0,0.0,84,0.00,,,0.00,Wunderground v.1.15,2013-05-10 06:06:00,
2013-05-10 02:12:00,64.7,60.1,29.93,WSW,242,0.0,0.0,85,0.00,,,0.00,Wunderground v.1.15,2013-05-10 06:12:00,
2013-05-10 02:18:00,64.5,59.9,29.93,WSW,242,0.0,0.0,85,0.00,,,0.00,Wunderground v.1.15,2013-05-10 06:18:00,
2013-05-10 02:23:00,64.5,59.9,29.93,WSW,242,0.0,0.0,85,0.00,,,0.00,Wunderground v.1.15,2013-05-10 06:23:00,
2013-05-10 02:28:00,64.3,59.7,29.93,WSW,242,0.0,0.0,85,0.00,,,0.00,Wunderground v.1.15,2013-05-10 06:28:00,
2013-05-10 02:33:00,64.3,59.7,29.92,WSW,242,0.0,0.0,85,0.00,,,0.00,Wunderground v.1.15,2013-05-10 06:33:00,
2013-05-10 02:38:00,64.3,59.7,29.92,WSW,242,0.0,0.0,85,0.00,,,0.00,Wunderground v.1.15,2013-05-10 06:38:00,
2013-05-10 02:43:00,64.2,59.6,29.92,WSW,242,0.0,0.0,85,0.00,,,0.00,Wunderground v.1.15,2013-05-10 06:43:00,
2013-05-10 02:49:00,64.2,59.6,29.92,WSW,242,0.0,0.0,85,0.00,,,0.00,Wunderground v.1.15,2013-05-10 06:49:00,
2013-05-10 02:54:00,64.0,59.4,29.92,WSW,242,0.0,0.0,85,0.00,,,0.00,Wunderground v.1.15,2013-05-10 06:54:00,
2013-05-10 02:59:00,64.0,59.7,29.93,WSW,242,0.0,0.0,86,0.00,,,0.00,Wunderground v.1.15,2013-05-10 06:59:00,
2013-05-10 03:04:00,63.9,59.6,29.93,WSW,242,0.0,0.0,86,0.00,,,0.00,Wunderground v.1.15,2013-05-10 07:04:00,
2013-05-10 03:09:00,63.9,59.6,29.93,WSW,242,0.0,0.0,86,0.00,,,0.00,Wunderground v.1.15,2013-05-10 07:09:00,
2013-05-10 03:14:00,63.7,59.4,29.93,WSW,242,0.0,0.0,86,0.00,,,0.00,Wunderground v.1.15,2013-05-10 07:14:00,
2013-05-10 03:19:00,63.7,59.4,29.93,WSW,242,0.0,0.0,86,0.00,,,0.00,Wunderground v.1.15,2013-05-10 07:19:00,
2013-05-10 03:24:00,63.5,59.2,29.93,WSW,242,0.0,0.0,86,0.00,,,0.00,Wunderground v.1.15,2013-05-10 07:24:00,
2013-05-10 03:29:00,63.4,59.5,29.93,WSW,242,0.0,0.0,87,0.00,,,0.00,Wunderground v.1.15,2013-05-10 07:29:00,
2013-05-10 03:34:00,63.4,59.5,29.93,WSW,242,0.0,0.0,87,0.00,,,0.00,Wunderground v.1.15,2013-05-10 07:34:00,
2013-05-10 03:39:00,63.2,59.3,29.93,WSW,242,0.0,0.0,87,0.00,,,0.00,Wunderground v.1.15,2013-05-10 07:39:00,
2013-05-10 03:44:00,63.2,59.3,29.93,WSW,242,0.0,0.0,87,0.00,,,0.00,Wunderground v.1.15,2013-05-10 07:44:00,
2013-05-10 03:50:00,63.1,59.2,29.93,WSW,242,0.0,0.0,87,0.00,,,0.00,Wunderground v.1.15,2013-05-10 07:50:00,
2013-05-10 03:55:00,63.1,59.2,29.93,WSW,242,0.0,0.0,87,0.00,,,0.00,Wunderground v.1.15,2013-05-10 07:55:00,
2013-05-10 04:00:00,62.9,59.0,29.93,WSW,242,0.0,0.0,87,0.00,,,0.00,Wunderground v.1.15,2013-05-10 08:00:00,
2013-05-10 04:05:00,62.9,59.3,29.93,WSW,242,0.0,0.0,88,0.00,,,0.00,Wunderground v.1.15,2013-05-10 08:05:00,
2013-05-10 04:10:00,62.9,59.3,29.93,WSW,242,0.0,0.0,88,0.00,,,0.00,Wunderground v.1.15,2013-05-10 08:10:00,
2013-05-10 04:15:00,62.7,59.1,29.93,WSW,242,0.0,0.0,88,0.00,,,0.00,Wunderground v.1.15,2013-05-10 08:15:00,
2013-05-10 04:20:00,62.7,59.1,29.93,WSW,242,0.0,0.0,88,0.00,,,0.00,Wunderground v.1.15,2013-05-10 08:20:00,
2013-05-10 04:25:00,62.7,59.1,29.93,WSW,242,0.0,0.0,88,0.00,,,0.00,Wunderground v.1.15,2013-05-10 08:25:00,
2013-05-10 04:30:00,62.7,59.1,29.92,WSW,242,0.0,0.0,88,0.00,,,0.00,Wunderground v.1.15,2013-05-10 08:30:00,
2013-05-10 04:35:00,62.7,59.1,29.92,WSW,242,0.0,0.0,88,0.00,,,0.00,Wunderground v.1.15,2013-05-10 08:35:00,
2013-05-10 04:41:00,62.9,59.0,29.92,WSW,242,0.0,0.0,87,0.00,,,0.00,Wunderground v.1.15,2013-05-10 08:41:00,
2013-05-10 04:46:00,62.9,59.0,29.92,WSW,242,0.0,0.0,87,0.00,,,0.00,Wunderground v.1.15,2013-05-10 08:46:00,
2013-05-10 04:51:00,62.9,59.0,29.92,WSW,242,0.0,0.0,87,0.00,,,0.00,Wunderground v.1.15,2013-05-10 08:51:00,
2013-05-10 04:56:00,62.9,59.0,29.92,WSW,242,0.0,0.0,87,0.00,,,0.00,Wunderground v.1.15,2013-05-10 08:56:00,
2013-05-10 05:01:00,62.9,59.0,29.92,WSW,242,0.0,1.0,87,0.00,,,0.00,Wunderground v.1.15,2013-05-10 09:01:00,
2013-05-10 05:06:00,62.9,59.0,29.92,WSW,242,0.0,0.0,87,0.00,,,0.00,Wunderground v.1.15,2013-05-10 09:06:00,
2013-05-10 05:11:00,62.9,59.0,29.92,WSW,242,0.0,0.0,87,0.00,,,0.00,Wunderground v.1.15,2013-05-10 09:11:00,
2013-05-10 05:16:00,62.9,59.0,29.92,WSW,242,0.0,0.0,87,0.00,,,0.00,Wunderground v.1.15,2013-05-10 09:16:00,
2013-05-10 05:21:00,62.7,58.8,29.92,WSW,242,0.0,0.0,87,0.00,,,0.00,Wunderground v.1.15,2013-05-10 09:21:00,
2013-05-10 05:27:00,62.7,58.8,29.92,WSW,242,0.0,0.0,87,0.00,,,0.00,Wunderground v.1.15,2013-05-10 09:27:00,
2013-05-10 05:32:00,62.7,58.8,29.92,WSW,242,0.0,0.0,87,0.00,,,0.00,Wunderground v.1.15,2013-05-10 09:32:00,
2013-05-10 05:38:00,62.6,58.7,29.92,WSW,242,0.0,0.0,87,0.00,,,0.00,Wunderground v.1.15,2013-05-10 09:38:00,
2013-05-10 05:43:00,62.6,58.7,29.92,WSW,242,0.0,0.0,87,0.00,,,0.00,Wunderground v.1.15,2013-05-10 09:43:00,
2013-05-10 05:49:00,62.6,58.7,29.92,WSW,242,0.0,1.0,87,0.00,,,0.00,Wunderground v.1.15,2013-05-10 09:49:00,
2013-05-10 05:54:00,62.6,58.7,29.92,WSW,242,0.0,0.0,87,0.00,,,0.00,Wunderground v.1.15,2013-05-10 09:54:00,
2013-05-10 05:59:00,62.6,58.7,29.92,WSW,242,0.0,0.0,87,0.00,,,0.00,Wunderground v.1.15,2013-05-10 09:59:00,
2013-05-10 06:04:00,62.6,58.7,29.92,WSW,242,0.0,0.0,87,0.00,,,0.00,Wunderground v.1.15,2013-05-10 10:04:00,
2013-05-10 06:09:00,62.6,58.7,29.92,WSW,242,0.0,0.0,87,0.00,,,0.00,Wunderground v.1.15,2013-05-10 10:09:00,
2013-05-10 06:14:00,62.6,58.7,29.92,WSW,242,0.0,1.0,87,0.00,,,0.00,Wunderground v.1.15,2013-05-10 10:14:00,
2013-05-10 06:20:00,62.6,58.7,29.92,WSW,242,0.0,1.0,87,0.00,,,0.00,Wunderground v.1.15,2013-05-10 10:20:00,
2013-05-10 06:25:00,62.4,58.5,29.92,WSW,242,0.0,0.0,87,0.00,,,0.00,Wunderground v.1.15,2013-05-10 10:25:00,
2013-05-10 06:30:00,62.4,58.5,29.92,WSW,242,0.0,0.0,87,0.00,,,0.00,Wunderground v.1.15,2013-05-10 10:30:00,
2013-05-10 06:35:00,62.4,58.8,29.92,WSW,242,0.0,0.0,88,0.00,,,0.00,Wunderground v.1.15,2013-05-10 10:35:00,
2013-05-10 06:40:00,62.4,58.8,29.92,WSW,242,0.0,0.0,88,0.00,,,0.00,Wunderground v.1.15,2013-05-10 10:40:00,
2013-05-10 06:45:00,62.4,58.8,29.93,WSW,242,0.0,0.0,88,0.00,,,0.00,Wunderground v.1.15,2013-05-10 10:45:00,
2013-05-10 06:50:00,62.4,58.8,29.93,WSW,242,0.0,0.0,88,0.00,,,0.00,Wunderground v.1.15,2013-05-10 10:50:00,
2013-05-10 06:55:00,62.4,58.8,29.93,WSW,242,0.0,0.0,88,0.00,,,0.00,Wunderground v.1.15,2013-05-10 10:55:00,
2013-05-10 07:00:00,62.6,59.0,29.93,WSW,242,0.0,0.0,88,0.00,,,0.00,Wunderground v.1.15,2013-05-10 11:00:00,
2013-05-10 07:05:00,62.6,59.0,29.93,WSW,242,0.0,0.0,88,0.00,,,0.00,Wunderground v.1.15,2013-05-10 11:05:00,
2013-05-10 07:10:00,62.7,59.1,29.93,WSW,242,0.0,0.0,88,0.00,,,0.00,Wunderground v.1.15,2013-05-10 11:10:00,
2013-05-10 07:16:00,62.9,59.3,29.94,WSW,242,0.0,0.0,88,0.00,,,0.00,Wunderground v.1.15,2013-05-10 11:16:00,
2013-05-10 07:21:00,63.1,59.5,29.94,WSW,242,0.0,1.0,88,0.00,,,0.00,Wunderground v.1.15,2013-05-10 11:21:00,
2013-05-10 07:26:00,63.2,59.3,29.94,WSW,242,0.0,0.0,87,0.00,,,0.00,Wunderground v.1.15,2013-05-10 11:26:00,
2013-05-10 07:31:00,63.5,59.6,29.93,WSW,242,0.0,0.0,87,0.00,,,0.00,Wunderground v.1.15,2013-05-10 11:31:00,
2013-05-10 07:36:00,63.7,59.8,29.93,WSW,242,0.0,0.0,87,0.00,,,0.00,Wunderground v.1.15,2013-05-10 11:36:00,
2013-05-10 07:41:00,63.9,60.0,29.93,WSW,242,0.0,0.0,87,0.00,,,0.00,Wunderground v.1.15,2013-05-10 11:41:00,
2013-05-10 07:46:00,64.3,60.0,29.94,West,276,0.0,2.0,86,0.00,,,0.00,Wunderground v.1.15,2013-05-10 11:46:00,
2013-05-10 07:52:00,64.7,60.4,29.94,West,277,1.0,1.0,86,0.00,,,0.00,Wunderground v.1.15,2013-05-10 11:52:00,
2013-05-10 07:57:00,65.0,60.4,29.94,West,277,0.0,2.0,85,0.00,,,0.00,Wunderground v.1.15,2013-05-10 11:57:00,
2013-05-10 08:03:00,65.5,60.5,29.93,WNW,294,1.0,1.0,84,0.00,,,0.00,Wunderground v.1.15,2013-05-10 12:03:00,
2013-05-10 08:08:00,65.8,60.5,29.93,West,267,1.0,4.0,83,0.00,,,0.00,Wunderground v.1.15,2013-05-10 12:08:00,
2013-05-10 08:13:00,66.3,60.6,29.93,West,267,0.0,0.0,82,0.00,,,0.00,Wunderground v.1.15,2013-05-10 12:13:00,
2013-05-10 08:18:00,66.6,60.9,29.93,West,267,0.0,0.0,82,0.00,,,0.00,Wunderground v.1.15,2013-05-10 12:18:00,
2013-05-10 08:24:00,67.1,60.7,29.93,West,267,0.0,0.0,80,0.00,,,0.00,Wunderground v.1.15,2013-05-10 12:24:00,
2013-05-10 08:29:00,67.6,60.9,29.93,West,267,0.0,2.0,79,0.00,,,0.00,Wunderground v.1.15,2013-05-10 12:29:00,
2013-05-10 08:34:00,68.1,60.6,29.93,West,267,0.0,0.0,77,0.00,,,0.00,Wunderground v.1.15,2013-05-10 12:34:00,
2013-05-10 08:39:00,68.6,60.7,29.93,West,263,1.0,2.0,76,0.00,,,0.00,Wunderground v.1.15,2013-05-10 12:39:00,
2013-05-10 08:45:00,69.3,61.0,29.93,West,263,0.0,1.0,75,0.00,,,0.00,Wunderground v.1.15,2013-05-10 12:45:00,
2013-05-10 08:50:00,70.1,61.8,29.93,West,261,0.0,4.0,75,0.00,,,0.00,Wunderground v.1.15,2013-05-10 12:50:00,
2013-05-10 08:55:00,70.6,61.9,29.93,West,261,0.0,0.0,74,0.00,,,0.00,Wunderground v.1.15,2013-05-10 12:55:00,
2013-05-10 09:00:00,71.3,62.2,29.93,West,261,0.0,2.0,73,0.00,,,0.00,Wunderground v.1.15,2013-05-10 13:00:00,
2013-05-10 09:05:00,71.8,62.3,29.93,West,261,0.0,0.0,72,0.00,,,0.00,Wunderground v.1.15,2013-05-10 13:05:00,
2013-05-10 09:11:00,72.5,63.0,29.93,SSW,205,0.0,4.0,72,0.00,,,0.00,Wunderground v.1.15,2013-05-10 13:11:00,
2013-05-10 09:16:00,73.2,63.2,29.93,SW,218,0.0,0.0,71,0.00,,,0.00,Wunderground v.1.15,2013-05-10 13:16:00,
2013-05-10 09:21:00,74.0,63.6,29.93,SW,218,0.0,0.0,70,0.00,,,0.00,Wunderground v.1.15,2013-05-10 13:21:00,
2013-05-10 09:27:00,74.9,63.2,29.93,SW,218,0.0,0.0,67,0.00,,,0.00,Wunderground v.1.15,2013-05-10 13:27:00,
2013-05-10 09:32:00,75.3,63.2,29.93,SW,218,0.0,0.0,66,0.00,,,0.00,Wunderground v.1.15,2013-05-10 13:32:00,
2013-05-10 09:37:00,75.4,63.7,29.93,SW,218,0.0,0.0,67,0.00,,,0.00,Wunderground v.1.15,2013-05-10 13:37:00,
2013-05-10 09:42:00,75.8,63.2,29.93,SW,218,0.0,0.0,65,0.00,,,0.00,Wunderground v.1.15,2013-05-10 13:42:00,
2013-05-10 09:48:00,76.5,63.4,29.94,SW,218,0.0,0.0,64,0.00,,,0.00,Wunderground v.1.15,2013-05-10 13:48:00,
2013-05-10 09:53:00,76.8,63.2,29.94,SW,218,0.0,0.0,63,0.00,,,0.00,Wunderground v.1.15,2013-05-10 13:53:00,
2013-05-10 09:58:00,77.2,63.6,29.94,SW,219,0.0,3.0,63,0.00,,,0.00,Wunderground v.1.15,2013-05-10 13:58:00,
2013-05-10 10:03:00,77.4,63.8,29.94,SW,219,0.0,0.0,63,0.00,,,0.00,Wunderground v.1.15,2013-05-10 14:03:00,
2013-05-10 10:08:00,77.4,63.4,29.94,SW,219,0.0,0.0,62,0.00,,,0.00,Wunderground v.1.15,2013-05-10 14:08:00,
2013-05-10 10:13:00,77.7,63.2,29.94,SW,219,0.0,1.0,61,0.00,,,0.00,Wunderground v.1.15,2013-05-10 14:13:00,
2013-05-10 10:18:00,78.3,63.7,29.94,SW,219,0.0,1.0,61,0.00,,,0.00,Wunderground v.1.15,2013-05-10 14:18:00,
2013-05-10 10:23:00,78.6,63.6,29.94,SW,219,0.0,0.0,60,0.00,,,0.00,Wunderground v.1.15,2013-05-10 14:23:00,
2013-05-10 10:29:00,79.0,63.9,29.94,SW,221,0.0,3.0,60,0.00,,,0.00,Wunderground v.1.15,2013-05-10 14:29:00,
2013-05-10 10:34:00,79.0,63.4,29.94,SW,221,0.0,0.0,59,0.00,,,0.00,Wunderground v.1.15,2013-05-10 14:34:00,
2013-05-10 10:39:00,79.2,64.1,29.94,SW,222,0.0,1.0,60,0.00,,,0.00,Wunderground v.1.15,2013-05-10 14:39:00,
2013-05-10 10:44:00,79.2,64.6,29.93,SW,222,0.0,0.0,61,0.00,,,0.00,Wunderground v.1.15,2013-05-10 14:44:00,
2013-05-10 10:49:00,79.8,65.6,29.93,SW,221,0.0,0.0,62,0.00,,,0.00,Wunderground v.1.15,2013-05-10 14:49:00,
2013-05-10 10:54:00,79.9,62.3,29.93,SW,215,0.0,1.0,55,0.00,,,0.00,Wunderground v.1.15,2013-05-10 14:54:00,
2013-05-10 10:59:00,79.9,62.8,29.93,WSW,241,1.0,3.0,56,0.00,,,0.00,Wunderground v.1.15,2013-05-10 14:59:00,
2013-05-10 11:05:00,80.3,63.2,29.93,WSW,242,1.0,1.0,56,0.00,,,0.00,Wunderground v.1.15,2013-05-10 15:05:00,
2013-05-10 11:11:00,80.7,63.0,29.93,WSW,242,0.0,1.0,55,0.00,,,0.00,Wunderground v.1.15,2013-05-10 15:11:00,
2013-05-10 11:16:00,81.1,62.3,29.93,SW,236,0.0,3.0,53,0.00,,,0.00,Wunderground v.1.15,2013-05-10 15:16:00,
2013-05-10 11:21:00,81.2,61.9,29.93,SW,236,1.0,3.0,52,0.00,,,0.00,Wunderground v.1.15,2013-05-10 15:21:00,
2013-05-10 11:26:00,81.4,61.0,29.93,SW,215,1.0,4.0,50,0.00,,,0.00,Wunderground v.1.15,2013-05-10 15:26:00,
2013-05-10 11:31:00,81.6,60.6,29.93,SSW,206,1.0,4.0,49,0.00,,,0.00,Wunderground v.1.15,2013-05-10 15:31:00,
2013-05-10 11:36:00,82.0,59.8,29.93,WSW,254,1.0,5.0,47,0.00,,,0.00,Wunderground v.1.15,2013-05-10 15:36:00,
2013-05-10 11:41:00,82.4,59.5,29.93,WSW,242,1.0,5.0,46,0.00,,,0.00,Wunderground v.1.15,2013-05-10 15:41:00,
2013-05-10 11:47:00,82.8,59.3,29.92,WSW,244,1.0,3.0,45,0.00,,,0.00,Wunderground v.1.15,2013-05-10 15:47:00,
2013-05-10 11:52:00,83.2,60.3,29.92,South,185,0.0,0.0,46,0.00,,,0.00,Wunderground v.1.15,2013-05-10 15:52:00,
2013-05-10 11:57:00,83.8,65.4,29.92,SSW,195,0.0,0.0,54,0.00,,,0.00,Wunderground v.1.15,2013-05-10 15:57:00,
2013-05-10 12:02:00,84.1,66.2,29.92,SE,124,0.0,3.0,55,0.00,,,0.00,Wunderground v.1.15,2013-05-10 16:02:00,
2013-05-10 12:07:00,84.1,66.2,29.92,ESE,114,1.0,3.0,55,0.00,,,0.00,Wunderground v.1.15,2013-05-10 16:07:00,
2013-05-10 12:13:00,84.1,65.7,29.92,SE,135,1.0,5.0,54,0.00,,,0.00,Wunderground v.1.15,2013-05-10 16:13:00,
2013-05-10 12:19:00,84.0,66.6,29.92,SSE,151,1.0,5.0,56,0.00,,,0.00,Wunderground v.1.15,2013-05-10 16:19:00,
2013-05-10 12:24:00,83.6,65.7,29.92,SE,138,1.0,6.0,55,0.00,,,0.00,Wunderground v.1.15,2013-05-10 16:24:00,
2013-05-10 12:29:00,83.6,66.2,29.92,SSE,147,1.0,6.0,56,0.00,,,0.00,Wunderground v.1.15,2013-05-10 16:29:00,
2013-05-10 12:34:00,83.6,66.2,29.92,SW,227,1.0,1.0,56,0.00,,,0.00,Wunderground v.1.15,2013-05-10 16:34:00,
2013-05-10 12:39:00,83.6,65.7,29.92,SSW,198,1.0,3.0,55,0.00,,,0.00,Wunderground v.1.15,2013-05-10 16:39:00,
2013-05-10 12:44:00,83.8,65.4,29.92,SE,136,1.0,1.0,54,0.00,,,0.00,Wunderground v.1.15,2013-05-10 16:44:00,
2013-05-10 12:49:00,84.1,65.1,29.92,SE,138,1.0,3.0,53,0.00,,,0.00,Wunderground v.1.15,2013-05-10 16:49:00,
2013-05-10 12:54:00,84.5,66.6,29.92,SSE,156,1.0,1.0,55,0.00,,,0.00,Wunderground v.1.15,2013-05-10 16:54:00,
2013-05-10 12:59:00,84.5,66.0,29.91,SW,215,1.0,2.0,54,0.00,,,0.00,Wunderground v.1.15,2013-05-10 16:59:00,
2013-05-10 13:04:00,84.1,64.6,29.91,SSE,161,1.0,2.0,52,0.00,,,0.00,Wunderground v.1.15,2013-05-10 17:04:00,
2013-05-10 13:10:00,83.6,63.0,29.91,SSW,209,1.0,2.0,50,0.00,,,0.00,Wunderground v.1.15,2013-05-10 17:10:00,
2013-05-10 13:16:00,83.8,64.3,29.91,SW,219,1.0,5.0,52,0.00,,,0.00,Wunderground v.1.15,2013-05-10 17:16:00,
2013-05-10 13:21:00,83.8,65.9,29.91,South,170,2.0,10.0,55,0.00,,,0.00,Wunderground v.1.15,2013-05-10 17:21:00,
2013-05-10 13:26:00,83.8,65.4,29.91,SSW,202,2.0,5.0,54,0.00,,,0.00,Wunderground v.1.15,2013-05-10 17:26:00,
2013-05-10 13:31:00,83.4,66.1,29.92,SSW,203,2.0,5.0,56,0.00,,,0.00,Wunderground v.1.15,2013-05-10 17:31:00,
2013-05-10 13:37:00,83.0,66.2,29.92,ESE,123,2.0,4.0,57,0.00,,,0.00,Wunderground v.1.15,2013-05-10 17:37:00,
2013-05-10 13:42:00,82.8,65.5,29.92,SSW,213,2.0,2.0,56,0.00,,,0.00,Wunderground v.1.15,2013-05-10 17:42:00,
2013-05-10 13:47:00,82.4,65.1,29.92,SSW,198,3.0,4.0,56,0.00,,,0.00,Wunderground v.1.15,2013-05-10 17:47:00,
2013-05-10 13:52:00,82.0,64.8,29.92,ESE,121,2.0,2.0,56,0.00,,,0.00,Wunderground v.1.15,2013-05-10 17:52:00,
2013-05-10 13:58:00,82.2,66.0,29.92,SW,225,1.0,4.0,58,0.00,,,0.00,Wunderground v.1.15,2013-05-10 17:58:00,
2013-05-10 14:03:00,82.8,66.5,29.92,South,177,1.0,1.0,58,0.00,,,0.00,Wunderground v.1.15,2013-05-10 18:03:00,
2013-05-10 14:08:00,83.4,65.5,29.92,East,101,1.0,3.0,55,0.00,,,0.00,Wunderground v.1.15,2013-05-10 18:08:00,
2013-05-10 14:13:00,83.6,66.8,29.92,South,175,1.0,4.0,57,0.00,,,0.00,Wunderground v.1.15,2013-05-10 18:13:00,
2013-05-10 14:19:00,84.1,66.7,29.92,West,273,1.0,4.0,56,0.00,,,0.00,Wunderground v.1.15,2013-05-10 18:19:00,
2013-05-10 14:24:00,83.8,64.3,29.92,SSE,161,2.0,2.0,52,0.00,,,0.00,Wunderground v.1.15,2013-05-10 18:24:00,
2013-05-10 14:29:00,83.8,64.8,29.91,SSW,200,1.0,2.0,53,0.00,,,0.00,Wunderground v.1.15,2013-05-10 18:29:00,
2013-05-10 14:34:00,84.1,65.1,29.91,SW,232,0.0,8.0,53,0.00,,,0.00,Wunderground v.1.15,2013-05-10 18:34:00,
2013-05-10 14:40:00,84.0,65.6,29.91,SSW,196,2.0,8.0,54,0.00,,,0.00,Wunderground v.1.15,2013-05-10 18:40:00,
2013-05-10 14:45:00,84.0,66.1,29.91,SSW,211,2.0,3.0,55,0.00,,,0.00,Wunderground v.1.15,2013-05-10 18:45:00,
2013-05-10 14:51:00,84.1,64.6,29.91,South,181,2.0,4.0,52,0.00,,,0.00,Wunderground v.1.15,2013-05-10 18:51:00,
2013-05-10 14:56:00,84.0,65.0,29.91,SW,223,2.0,9.0,53,0.00,,,0.00,Wunderground v.1.15,2013-05-10 18:56:00,
2013-05-10 15:01:00,83.6,64.7,29.90,SSW,205,3.0,9.0,53,0.00,,,0.00,Wunderground v.1.15,2013-05-10 19:01:00,
2013-05-10 15:06:00,82.8,65.0,29.90,SSW,208,4.0,4.0,55,0.00,,,0.00,Wunderground v.1.15,2013-05-10 19:06:00,
2013-05-10 15:11:00,82.0,64.2,29.90,SW,223,4.0,5.0,55,0.00,,,0.00,Wunderground v.1.15,2013-05-10 19:11:00,
2013-05-10 15:17:00,81.8,65.1,29.90,SW,221,4.0,6.0,57,0.00,,,0.00,Wunderground v.1.15,2013-05-10 19:17:00,
2013-05-10 15:22:00,81.8,65.6,29.90,WSW,250,3.0,3.0,58,0.00,,,0.00,Wunderground v.1.15,2013-05-10 19:22:00,
2013-05-10 15:27:00,81.8,65.6,29.90,SSW,193,1.0,3.0,58,0.00,,,0.00,Wunderground v.1.15,2013-05-10 19:27:00,
2013-05-10 15:32:00,81.4,65.2,29.89,SE,137,1.0,1.0,58,0.00,,,0.00,Wunderground v.1.15,2013-05-10 19:32:00,
2013-05-10 15:37:00,81.6,64.9,29.89,South,180,2.0,10.0,57,0.00,,,0.00,Wunderground v.1.15,2013-05-10 19:37:00,
2013-05-10 15:42:00,82.4,65.1,29.89,South,184,2.0,5.0,56,0.00,,,0.00,Wunderground v.1.15,2013-05-10 19:42:00,
2013-05-10 15:47:00,82.6,64.8,29.89,SSE,167,2.0,7.0,55,0.00,,,0.00,Wunderground v.1.15,2013-05-10 19:47:00,
2013-05-10 15:52:00,82.2,63.9,29.89,South,177,2.0,5.0,54,0.00,,,0.00,Wunderground v.1.15,2013-05-10 19:52:00,
2013-05-10 15:57:00,81.8,63.5,29.89,ESE,122,2.0,5.0,54,0.00,,,0.00,Wunderground v.1.15,2013-05-10 19:57:00,
2013-05-10 16:02:00,82.0,64.2,29.89,SSW,207,1.0,3.0,55,0.00,,,0.00,Wunderground v.1.15,2013-05-10 20:02:00,
2013-05-10 16:08:00,82.8,63.9,29.89,WSW,240,2.0,3.0,53,0.00,,,0.00,Wunderground v.1.15,2013-05-10 20:08:00,
2013-05-10 16:13:00,83.4,63.9,29.89,SE,124,2.0,2.0,52,0.00,,,0.00,Wunderground v.1.15,2013-05-10 20:13:00,
2013-05-10 16:18:00,83.8,63.7,29.88,SSW,192,2.0,6.0,51,0.00,,,0.00,Wunderground v.1.15,2013-05-10 20:18:00,
2013-05-10 16:23:00,83.8,63.2,29.88,SE,139,2.0,3.0,50,0.00,,,0.00,Wunderground v.1.15,2013-05-10 20:23:00,
2013-05-10 16:28:00,83.6,63.6,29.88,SW,229,2.0,7.0,51,0.00,,,0.00,Wunderground v.1.15,2013-05-10 20:28:00,
2013-05-10 16:33:00,83.2,63.7,29.88,SW,223,2.0,3.0,52,0.00,,,0.00,Wunderground v.1.15,2013-05-10 20:33:00,
2013-05-10 16:38:00,83.2,63.2,29.88,SSW,198,2.0,12.0,51,0.00,,,0.00,Wunderground v.1.15,2013-05-10 20:38:00,
2013-05-10 16:43:00,83.4,63.9,29.88,SW,228,2.0,2.0,52,0.00,,,0.00,Wunderground v.1.15,2013-05-10 20:43:00,
2013-05-10 16:48:00,83.6,63.0,29.87,SSW,200,1.0,3.0,50,0.00,,,0.00,Wunderground v.1.15,2013-05-10 20:48:00,
2013-05-10 16:53:00,83.0,62.4,29.87,WNW,282,3.0,7.0,50,0.00,,,0.00,Wunderground v.1.15,2013-05-10 20:53:00,
2013-05-10 16:59:00,82.4,61.9,29.87,SW,221,4.0,10.0,50,0.00,,,0.00,Wunderground v.1.15,2013-05-10 20:59:00,
2013-05-10 17:05:00,81.8,62.5,29.87,SW,223,4.0,6.0,52,0.00,,,0.00,Wunderground v.1.15,2013-05-10 21:05:00,
2013-05-10 17:10:00,81.8,62.5,29.87,SSW,211,3.0,6.0,52,0.00,,,0.00,Wunderground v.1.15,2013-05-10 21:10:00,
2013-05-10 17:15:00,81.8,63.0,29.87,South,169,2.0,2.0,53,0.00,,,0.00,Wunderground v.1.15,2013-05-10 21:15:00,
2013-05-10 17:20:00,81.8,63.5,29.87,South,187,2.0,2.0,54,0.00,,,0.00,Wunderground v.1.15,2013-05-10 21:20:00,
2013-05-10 17:25:00,82.0,63.7,29.87,SW,224,1.0,2.0,54,0.00,,,0.00,Wunderground v.1.15,2013-05-10 21:25:00,
2013-05-10 17:30:00,81.8,63.5,29.87,SW,215,1.0,4.0,54,0.00,,,0.00,Wunderground v.1.15,2013-05-10 21:30:00,
2013-05-10 17:35:00,81.2,63.5,29.87,West,259,2.0,10.0,55,0.00,,,0.00,Wunderground v.1.15,2013-05-10 21:35:00,
2013-05-10 17:40:00,81.1,63.4,29.87,West,271,2.0,10.0,55,0.00,,,0.00,Wunderground v.1.15,2013-05-10 21:40:00,
2013-05-10 17:46:00,80.9,63.7,29.86,SSW,202,1.0,2.0,56,0.00,,,0.00,Wunderground v.1.15,2013-05-10 21:46:00,
2013-05-10 17:51:00,80.3,63.2,29.86,WSW,237,2.0,2.0,56,0.00,,,0.00,Wunderground v.1.15,2013-05-10 21:51:00,
2013-05-10 17:56:00,79.4,63.3,29.86,SSW,201,2.0,6.0,58,0.00,,,0.00,Wunderground v.1.15,2013-05-10 21:56:00,
2013-05-10 17:58:00,79.2,63.1,29.86,SSW,203,2.0,6.0,58,0.00,,,0.00,Wunderground v.1.15,2013-05-10 21:58:00,
2013-05-10 18:00:00,79.0,63.4,29.86,SSW,200,2.0,6.0,59,0.00,,,0.00,Wunderground v.1.15,2013-05-10 22:00:00,
2013-05-10 18:02:00,78.6,63.1,29.86,SSW,210,2.0,2.0,59,0.00,,,0.00,Wunderground v.1.15,2013-05-10 22:02:00,
2013-05-10 18:03:00,78.6,63.1,29.86,SSW,211,2.0,2.0,59,0.00,,,0.00,Wunderground v.1.15,2013-05-10 22:03:00,
2013-05-10 18:08:00,78.3,63.7,29.86,SW,232,1.0,2.0,61,0.00,,,0.00,Wunderground v.1.15,2013-05-10 22:08:00,
2013-05-10 18:13:00,78.5,63.9,29.86,SSW,209,1.0,1.0,61,0.00,,,0.00,Wunderground v.1.15,2013-05-10 22:13:00,
2013-05-10 18:18:00,78.8,63.7,29.86,SSW,192,1.0,8.0,60,0.00,,,0.00,Wunderground v.1.15,2013-05-10 22:18:00,
2013-05-10 18:23:00,78.8,62.8,29.86,SW,234,2.0,5.0,58,0.00,,,0.00,Wunderground v.1.15,2013-05-10 22:23:00,
2013-05-10 18:29:00,78.8,63.7,29.86,SW,218,2.0,5.0,60,0.00,,,0.00,Wunderground v.1.15,2013-05-10 22:29:00,
2013-05-10 18:34:00,78.6,63.6,29.86,West,270,2.0,2.0,60,0.00,,,0.00,Wunderground v.1.15,2013-05-10 22:34:00,
2013-05-10 18:39:00,78.5,63.5,29.86,SSE,158,1.0,2.0,60,0.00,,,0.00,Wunderground v.1.15,2013-05-10 22:39:00,
2013-05-10 18:44:00,78.1,63.1,29.86,SW,229,1.0,2.0,60,0.00,,,0.00,Wunderground v.1.15,2013-05-10 22:44:00,
2013-05-10 18:50:00,77.6,63.5,29.86,WSW,242,1.0,2.0,62,0.00,,,0.00,Wunderground v.1.15,2013-05-10 22:50:00,
2013-05-10 18:55:00,77.2,63.6,29.86,WSW,239,1.0,4.0,63,0.00,,,0.00,Wunderground v.1.15,2013-05-10 22:55:00,
2013-05-10 19:00:00,77.0,63.4,29.86,SSW,209,1.0,5.0,63,0.00,,,0.00,Wunderground v.1.15,2013-05-10 23:00:00,
2013-05-10 19:05:00,76.5,63.4,29.86,SSW,200,1.0,3.0,64,0.00,,,0.00,Wunderground v.1.15,2013-05-10 23:05:00,
2013-05-10 19:10:00,76.3,63.7,29.86,South,184,1.0,3.0,65,0.00,,,0.00,Wunderground v.1.15,2013-05-10 23:10:00,
2013-05-10 19:15:00,76.0,63.8,29.86,SW,218,1.0,6.0,66,0.00,,,0.00,Wunderground v.1.15,2013-05-10 23:15:00,
2013-05-10 19:20:00,75.6,63.4,29.86,SW,216,1.0,6.0,66,0.00,,,0.00,Wunderground v.1.15,2013-05-10 23:20:00,
2013-05-10 19:25:00,75.4,63.7,29.86,SW,216,1.0,1.0,67,0.00,,,0.00,Wunderground v.1.15,2013-05-10 23:25:00,
2013-05-10 19:30:00,75.3,64.0,29.86,SW,216,0.0,2.0,68,0.00,,,0.00,Wunderground v.1.15,2013-05-10 23:30:00,
2013-05-10 19:35:00,75.1,63.8,29.86,SSW,201,0.0,5.0,68,0.00,,,0.00,Wunderground v.1.15,2013-05-10 23:35:00,
2013-05-10 19:40:00,74.7,63.9,29.86,SSW,201,0.0,5.0,69,0.00,,,0.00,Wunderground v.1.15,2013-05-10 23:40:00,
2013-05-10 19:45:00,74.4,63.6,29.87,South,186,0.0,0.0,69,0.00,,,0.00,Wunderground v.1.15,2013-05-10 23:45:00,
2013-05-10 19:51:00,74.0,63.2,29.87,South,188,1.0,1.0,69,0.00,,,0.00,Wunderground v.1.15,2013-05-10 23:51:00,
2013-05-10 19:56:00,73.9,63.5,29.87,South,188,0.0,0.0,70,0.00,,,0.00,Wunderground v.1.15,2013-05-10 23:56:00,
2013-05-10 20:01:00,73.7,63.7,29.87,SSW,196,0.0,4.0,71,0.00,,,0.00,Wunderground v.1.15,2013-05-11 00:01:00,
2013-05-10 20:08:00,73.3,63.3,29.87,SSW,204,0.0,0.0,71,0.00,,,0.00,Wunderground v.1.15,2013-05-11 00:08:00,
2013-05-10 20:13:00,73.2,63.6,29.87,SSW,206,0.0,1.0,72,0.00,,,0.00,Wunderground v.1.15,2013-05-11 00:13:00,
2013-05-10 20:18:00,73.0,63.8,29.87,SSW,206,0.0,1.0,73,0.00,,,0.00,Wunderground v.1.15,2013-05-11 00:18:00,
2013-05-10 20:23:00,72.8,63.6,29.87,SSW,206,0.0,1.0,73,0.00,,,0.00,Wunderground v.1.15,2013-05-11 00:23:00,
2013-05-10 20:28:00,72.5,63.4,29.87,SSW,206,0.0,1.0,73,0.00,,,0.00,Wunderground v.1.15,2013-05-11 00:28:00,
2013-05-10 20:33:00,72.3,63.5,29.87,SSW,206,0.0,0.0,74,0.00,,,0.00,Wunderground v.1.15,2013-05-11 00:33:00,
2013-05-10 20:38:00,72.1,63.7,29.87,SSW,206,0.0,1.0,75,0.00,,,0.00,Wunderground v.1.15,2013-05-11 00:38:00,
2013-05-10 20:43:00,72.0,63.6,29.87,SSW,206,0.0,0.0,75,0.00,,,0.00,Wunderground v.1.15,2013-05-11 00:43:00,
2013-05-10 20:48:00,71.8,63.4,29.87,SSW,206,0.0,3.0,75,0.00,,,0.00,Wunderground v.1.15,2013-05-11 00:48:00,
2013-05-10 20:53:00,71.6,63.6,29.87,SSW,206,0.0,0.0,76,0.00,,,0.00,Wunderground v.1.15,2013-05-11 00:53:00,
2013-05-10 20:58:00,71.5,63.5,29.87,SSW,206,0.0,2.0,76,0.00,,,0.00,Wunderground v.1.15,2013-05-11 00:58:00,
2013-05-10 21:03:00,71.5,63.5,29.87,SSW,206,0.0,0.0,76,0.00,,,0.00,Wunderground v.1.15,2013-05-11 01:03:00,
2013-05-10 21:09:00,71.1,62.8,29.87,SSW,206,0.0,1.0,75,0.00,,,0.00,Wunderground v.1.15,2013-05-11 01:09:00,
2013-05-10 21:14:00,71.1,62.8,29.88,SSW,207,0.0,0.0,75,0.00,,,0.00,Wunderground v.1.15,2013-05-11 01:14:00,
2013-05-10 21:19:00,70.9,62.6,29.88,SSW,207,0.0,0.0,75,0.00,,,0.00,Wunderground v.1.15,2013-05-11 01:19:00,
2013-05-10 21:24:00,70.9,62.6,29.88,SSW,207,0.0,0.0,75,0.00,,,0.00,Wunderground v.1.15,2013-05-11 01:24:00,
2013-05-10 21:29:00,70.9,62.6,29.87,SSW,207,0.0,0.0,75,0.00,,,0.00,Wunderground v.1.15,2013-05-11 01:29:00,
2013-05-10 21:34:00,70.8,63.2,29.87,SSW,207,0.0,0.0,77,0.00,,,0.00,Wunderground v.1.15,2013-05-11 01:34:00,
2013-05-10 21:39:00,70.8,63.2,29.87,SSW,207,0.0,0.0,77,0.00,,,0.00,Wunderground v.1.15,2013-05-11 01:39:00,
2013-05-10 21:45:00,70.6,63.4,29.88,SSW,207,0.0,0.0,78,0.00,,,0.00,Wunderground v.1.15,2013-05-11 01:45:00,
2013-05-10 21:51:00,70.4,63.6,29.88,SSW,207,0.0,0.0,79,0.00,,,0.00,Wunderground v.1.15,2013-05-11 01:51:00,
2013-05-10 21:56:00,70.3,63.5,29.88,SSW,207,0.0,0.0,79,0.00,,,0.00,Wunderground v.1.15,2013-05-11 01:56:00,
2013-05-10 22:01:00,70.1,63.6,29.89,SSW,207,0.0,0.0,80,0.00,,,0.00,Wunderground v.1.15,2013-05-11 02:01:00,
2013-05-10 22:06:00,69.9,63.4,29.89,SSW,207,0.0,0.0,80,0.00,,,0.00,Wunderground v.1.15,2013-05-11 02:06:00,
2013-05-10 22:11:00,69.9,63.8,29.89,SSW,207,0.0,0.0,81,0.00,,,0.00,Wunderground v.1.15,2013-05-11 02:11:00,
2013-05-10 22:16:00,69.8,63.7,29.89,SSW,207,0.0,0.0,81,0.00,,,0.00,Wunderground v.1.15,2013-05-11 02:16:00,
2013-05-10 22:22:00,69.6,63.9,29.89,SSW,207,0.0,0.0,82,0.00,,,0.00,Wunderground v.1.15,2013-05-11 02:22:00,
2013-05-10 22:27:00,69.4,63.7,29.89,SSW,207,0.0,0.0,82,0.00,,,0.00,Wunderground v.1.15,2013-05-11 02:27:00,
2013-05-10 22:32:00,69.3,63.6,29.89,SSW,207,0.0,0.0,82,0.00,,,0.00,Wunderground v.1.15,2013-05-11 02:32:00,
2013-05-10 22:37:00,69.1,63.4,29.89,SSW,207,0.0,0.0,82,0.00,,,0.00,Wunderground v.1.15,2013-05-11 02:37:00,
2013-05-10 22:42:00,69.1,63.7,29.89,SSW,207,0.0,0.0,83,0.00,,,0.00,Wunderground v.1.15,2013-05-11 02:42:00,
2013-05-10 22:47:00,69.1,63.7,29.89,SSW,207,0.0,0.0,83,0.00,,,0.00,Wunderground v.1.15,2013-05-11 02:47:00,
2013-05-10 22:52:00,68.9,63.5,29.89,SSW,207,1.0,1.0,83,0.00,,,0.00,Wunderground v.1.15,2013-05-11 02:52:00,
2013-05-10 22:57:00,68.9,63.5,29.89,SSW,197,1.0,2.0,83,0.00,,,0.00,Wunderground v.1.15,2013-05-11 02:57:00,
2013-05-10 23:02:00,68.9,63.5,29.88,SSW,197,1.0,1.0,83,0.00,,,0.00,Wunderground v.1.15,2013-05-11 03:02:00,
2013-05-10 23:08:00,68.9,63.5,29.88,SSW,197,0.0,1.0,83,0.00,,,0.00,Wunderground v.1.15,2013-05-11 03:08:00,
2013-05-10 23:13:00,68.9,63.5,29.88,SSW,197,0.0,0.0,83,0.00,,,0.00,Wunderground v.1.15,2013-05-11 03:13:00,
2013-05-10 23:19:00,68.9,63.5,29.88,SSW,203,0.0,2.0,83,0.00,,,0.00,Wunderground v.1.15,2013-05-11 03:19:00,
2013-05-10 23:24:00,69.1,63.4,29.88,SSW,203,0.0,2.0,82,0.00,,,0.00,Wunderground v.1.15,2013-05-11 03:24:00,
2013-05-10 23:29:00,69.1,63.4,29.88,SSW,203,1.0,2.0,82,0.00,,,0.00,Wunderground v.1.15,2013-05-11 03:29:00,
2013-05-10 23:34:00,69.3,62.9,29.88,SW,219,1.0,2.0,80,0.00,,,0.00,Wunderground v.1.15,2013-05-11 03:34:00,
2013-05-10 23:39:00,69.4,62.6,29.88,SW,221,1.0,2.0,79,0.00,,,0.00,Wunderground v.1.15,2013-05-11 03:39:00,
2013-05-10 23:44:00,69.6,62.8,29.88,SW,216,0.0,4.0,79,0.00,,,0.00,Wunderground v.1.15,2013-05-11 03:44:00,
2013-05-10 23:50:00,69.9,62.7,29.88,WSW,238,1.0,4.0,78,0.00,,,0.00,Wunderground v.1.15,2013-05-11 03:50:00,
2013-05-10 23:56:00,70.3,62.7,29.88,WSW,254,1.0,2.0,77,0.00,,,0.00,Wunderground v.1.15,2013-05-11 03:56:00,